Change the Weather History Date:

Monday, August 6, 2012

  Actual Average Record
Temperature  
Mean Temperature 79 °F 72 °F  
Max Temperature 91 °F 85 °F 99 °F (1972)
Min Temperature 66 °F 58 °F 43 °F (1969)
Degree Days  
Heating Degree Days 0 1  
Month to date heating degree days 0 1  
Since 1 June heating degree days 195 169  
Since 1 July heating degree days 20 33  
Cooling Degree Days 14 7  
Month to date cooling degree days 50 42  
Year to date cooling degree days 331 285  
Since 1 June cooling degree days 321 271  
Growing Degree Days 28 (Base 50)    
Moisture  
Dew Point 52 °F    
Average Humidity 41    
Maximum Humidity 58    
Minimum Humidity 23    
Precipitation  
Precipitation T in 0.02 in 0.99 in (2004)
Month to date precipitation T 0.10  
Year to date precipitation 13.83 9.62  
Snow  
Snow 0.00 in 0.00 in - ()
Month to date snowfall 0.0 0.0  
Since 1 June snowfall 0.0 0.0  
Since 1 July snowfall 0.0 0.0  
Snow Depth 0.00 in    
Sea Level Pressure  
Sea Level Pressure 30.01 in    
Wind  
Wind Speed 5 mph (SSE)    
Max Wind Speed 14 mph    
Max Gust Speed 17 mph    
Visibility 10 miles    
Events Rain    
T = Trace of Precipitation, MM = Missing Value Source: NWS Daily Summary

Daily Weather History Graph

Daily Weather History Graph

Search for Another Location

Airport or City:

Trip Planner

Search our weather history database for the weather conditions in past years. The results will help you decide how hot, cold, wet, or windy it might be!

Date:

Astronomy

Aug. 06, 2012 Rise Set
Actual Time 5:34 AM PDT 8:16 PM PDT
Civil Twilight 4:59 AM PDT 8:51 PM PDT
Nautical Twilight 4:14 AM PDT 9:35 PM PDT
Astronomical Twilight 3:22 AM PDT 10:27 PM PDT
Moon 9:58 PM PDT (8/6) 10:55 AM PDT (8/6)
Length of Visible Light 15h 51m
Length of Day
14h 41m
Waning Gibbous, 77% of the Moon is Illuminated
Aug 6
Waning Gibbous
Aug 9
Last Quarter
Aug 17
New
Aug 24
First Quarter
Aug 31
Full

Hourly Weather History & Observations

Time (PDT) Temp. Heat Index Dew Point Humidity Pressure Visibility Wind Dir Wind Speed Gust Speed Precip Events Conditions
12:53 AM 75.0 °F - 54.0 °F 48% 29.92 in 10.0 mi Calm Calm - N/A   Mostly Cloudy
1:53 AM 73.0 °F - 52.0 °F 48% 29.93 in 10.0 mi Calm Calm - N/A   Mostly Cloudy
2:53 AM 66.9 °F - 51.1 °F 57% 29.95 in 10.0 mi Calm Calm - N/A   Mostly Cloudy
3:53 AM 69.1 °F - 53.1 °F 57% 29.95 in 10.0 mi Calm Calm - N/A   Mostly Cloudy
4:53 AM 69.1 °F - 53.1 °F 57% 29.97 in 10.0 mi SSE 6.9 mph - N/A   Mostly Cloudy
5:53 AM 66.9 °F - 52.0 °F 59% 29.99 in 10.0 mi SSE 8.1 mph - N/A   Mostly Cloudy
6:53 AM 66.9 °F - 51.1 °F 57% 30.01 in 10.0 mi SE 5.8 mph - N/A   Mostly Cloudy
7:53 AM 71.1 °F - 52.0 °F 51% 30.03 in 10.0 mi SSE 6.9 mph - N/A   Mostly Cloudy
8:53 AM 77.0 °F - 54.0 °F 45% 30.04 in 10.0 mi South 5.8 mph - N/A   Mostly Cloudy
9:53 AM 79.0 °F - 54.0 °F 42% 30.04 in 10.0 mi Variable 4.6 mph - N/A   Mostly Cloudy
10:53 AM 82.0 °F 81.3 °F 54.0 °F 38% 30.05 in 10.0 mi Variable 5.8 mph - N/A   Mostly Cloudy
11:53 AM 82.0 °F 81.3 °F 54.0 °F 38% 30.07 in 10.0 mi South 5.8 mph - N/A   Mostly Cloudy
12:53 PM 82.0 °F 81.3 °F 54.0 °F 38% 30.07 in 10.0 mi South 8.1 mph - 0.00 in Rain Light Rain
1:53 PM 84.0 °F - 52.0 °F 33% 30.07 in 10.0 mi SSE 8.1 mph - 0.00 in   Mostly Cloudy
2:53 PM 87.1 °F - 51.1 °F 29% 30.06 in 10.0 mi SSE 9.2 mph - N/A   Mostly Cloudy
3:53 PM 89.1 °F - 51.1 °F 27% 30.04 in 10.0 mi ESE 8.1 mph - N/A   Mostly Cloudy
4:53 PM 91.0 °F - 50.0 °F 24% 30.02 in 10.0 mi East 9.2 mph - N/A   Scattered Clouds
5:53 PM 91.0 °F - 48.9 °F 23% 30.00 in 10.0 mi East 5.8 mph - N/A   Scattered Clouds
6:53 PM 89.1 °F - 50.0 °F 26% 29.99 in 10.0 mi ESE 10.4 mph - N/A   Scattered Clouds
7:53 PM 86.0 °F - 51.1 °F 30% 29.99 in 10.0 mi SE 6.9 mph - N/A   Scattered Clouds
8:53 PM 82.0 °F - 51.1 °F 34% 30.00 in 10.0 mi South 5.8 mph - N/A   Partly Cloudy
9:53 PM 80.1 °F - 52.0 °F 38% 30.01 in 10.0 mi South 5.8 mph - N/A   Partly Cloudy
10:53 PM 75.0 °F - 52.0 °F 44% 30.01 in 10.0 mi SW 3.5 mph - N/A   Partly Cloudy
11:53 PM 75.0 °F - 53.1 °F 46% 30.01 in 10.0 mi Calm Calm - N/A   Scattered Clouds